When you browse on this site, cookies collect data to enhance your experience and personalize the content and advertising you see.
Visit our Privacy Policy to learn more. By continuing to use the site, you agree to this use of cookies and data.
  • în România
  • Lista ţărilor
  • Pe 7 zile
  • Temperatura apei
  • Hartă satelitară
  • Meteo pe hartă
  • Widget-uri
  • user-avatar
    Intrare

    Meteo pe oră la Prinston

    Astăzi, 22 Mai, Miercuri

    Timp Temperatura Precipitaţii Vânt Presiune Umiditate
    00:00 +13°C° 0 mm 3 m/s 762 mmHg 54%
    01:00 +12°C° 0 mm 3 m/s 762 mmHg 56%
    02:00 +13°C° 0 mm 2 m/s 762 mmHg 58%
    03:00 +12°C° 0 mm 2 m/s 762 mmHg 61%
    04:00 +12°C° 0 mm 2 m/s 763 mmHg 64%
    05:00 +13°C° 0 mm 2 m/s 763 mmHg 61%
    06:00 +14°C° 0 mm 2 m/s 764 mmHg 58%
    07:00 +14°C° 0 mm 3 m/s 764 mmHg 55%
    08:00 +17°C° 0 mm 2 m/s 764 mmHg 49%
    09:00 +19°C° 0 mm 2 m/s 764 mmHg 42%
    10:00 +20°C° 0 mm 2 m/s 764 mmHg 35%
    11:00 +23°C° 0 mm 2 m/s 764 mmHg 33%
    12:00 +24°C° 0 mm 2 m/s 764 mmHg 31%
    13:00 +25°C° 0 mm 1 m/s 764 mmHg 28%
    14:00 +25°C° 0 mm 1 m/s 764 mmHg 29%
    15:00 +26°C° 0 mm 1 m/s 763 mmHg 30%
    16:00 +26°C° 0 mm 1 m/s 763 mmHg 31%
    17:00 +24°C° 0 mm 1 m/s 763 mmHg 36%
    18:00 +21°C° 0 mm 2 m/s 763 mmHg 41%
    19:00 +20°C° 0 mm 2 m/s 763 mmHg 46%
    20:00 +19°C° 0 mm 2 m/s 764 mmHg 48%
    21:00 +18°C° 0 mm 3 m/s 764 mmHg 49%
    22:00 +17°C° 0 mm 3 m/s 764 mmHg 51%
    23:00 +17°C° 0 mm 3 m/s 764 mmHg 51%

    Mâine, 23 Mai, Joi

    Timp Temperatura Precipitaţii Vânt Presiune Umiditate
    00:00 +16°C° 0 mm 3 m/s 764 mmHg 52%
    01:00 +16°C° 0 mm 3 m/s 764 mmHg 52%
    02:00 +16°C° 0 mm 3 m/s 763 mmHg 53%
    03:00 +16°C° 0 mm 3 m/s 763 mmHg 53%
    04:00 +16°C° 0 mm 3 m/s 763 mmHg 54%
    05:00 +16°C° 0.4 mm 3 m/s 763 mmHg 58%
    06:00 +17°C° 0.4 mm 4 m/s 763 mmHg 61%
    07:00 +17°C° 0.4 mm 4 m/s 762 mmHg 65%
    08:00 +19°C° 0.1 mm 4 m/s 762 mmHg 62%
    09:00 +21°C° 0.1 mm 5 m/s 762 mmHg 59%
    10:00 +22°C° 0.1 mm 5 m/s 761 mmHg 56%
    11:00 +25°C° 0 mm 5 m/s 760 mmHg 55%
    12:00 +26°C° 0 mm 5 m/s 760 mmHg 55%
    13:00 +28°C° 0 mm 5 m/s 759 mmHg 54%
    14:00 +28°C° 0 mm 5 m/s 758 mmHg 59%
    15:00 +27°C° 0 mm 4 m/s 757 mmHg 63%
    16:00 +27°C° 0 mm 4 m/s 757 mmHg 68%
    17:00 +26°C° 1.6 mm 5 m/s 756 mmHg 71%
    18:00 +25°C° 1.6 mm 5 m/s 756 mmHg 74%
    19:00 +24°C° 1.6 mm 6 m/s 756 mmHg 78%
    20:00 +23°C° 0.1 mm 5 m/s 756 mmHg 80%
    21:00 +22°C° 0.1 mm 4 m/s 756 mmHg 82%
    22:00 +22°C° 0.1 mm 4 m/s 756 mmHg 85%
    23:00 +21°C° 0 mm 4 m/s 755 mmHg 84%

    Poimâine, 24 Mai, Vineri

    Timp Temperatura Precipitaţii Vânt Presiune Umiditate
    00:00 +21°C° 0 mm 4 m/s 755 mmHg 83%
    01:00 +21°C° 0 mm 4 m/s 755 mmHg 82%
    02:00 +20°C° 0 mm 4 m/s 755 mmHg 80%
    03:00 +19°C° 0 mm 4 m/s 755 mmHg 78%
    04:00 +18°C° 0 mm 4 m/s 755 mmHg 76%
    05:00 +17°C° 0 mm 5 m/s 755 mmHg 73%
    06:00 +19°C° 0 mm 5 m/s 756 mmHg 71%
    07:00 +19°C° 0 mm 5 m/s 756 mmHg 68%
    08:00 +20°C° 0 mm 6 m/s 756 mmHg 64%
    09:00 +21°C° 0 mm 6 m/s 757 mmHg 59%
    10:00 +22°C° 0 mm 6 m/s 757 mmHg 55%
    11:00 +22°C° 0 mm 6 m/s 757 mmHg 54%
    12:00 +22°C° 0 mm 7 m/s 757 mmHg 52%
    13:00 +23°C° 0 mm 7 m/s 757 mmHg 51%
    14:00 +23°C° 0 mm 6 m/s 757 mmHg 51%
    15:00 +22°C° 0 mm 6 m/s 757 mmHg 51%
    16:00 +22°C° 0 mm 6 m/s 758 mmHg 51%
    17:00 +21°C° 0 mm 5 m/s 758 mmHg 55%
    18:00 +20°C° 0 mm 4 m/s 759 mmHg 58%
    19:00 +19°C° 0 mm 4 m/s 759 mmHg 61%
    20:00 +18°C° 0 mm 3 m/s 760 mmHg 64%
    21:00 +17°C° 0 mm 3 m/s 760 mmHg 66%
    22:00 +16°C° 0 mm 3 m/s 761 mmHg 68%
    23:00 +16°C° 0 mm 2 m/s 761 mmHg 70%

    25 Mai, Sâmbătă

    Timp Temperatura Precipitaţii Vânt Presiune Umiditate
    00:00 +15°C° 0 mm 2 m/s 761 mmHg 72%
    01:00 +15°C° 0 mm 2 m/s 761 mmHg 74%
    02:00 +14°C° 0 mm 1 m/s 762 mmHg 77%
    03:00 +14°C° 0 mm 1 m/s 762 mmHg 79%
    04:00 +14°C° 0 mm 1 m/s 762 mmHg 81%
    05:00 +15°C° 0 mm 1 m/s 762 mmHg 78%
    06:00 +16°C° 0 mm 2 m/s 762 mmHg 75%
    07:00 +17°C° 0 mm 2 m/s 763 mmHg 73%
    08:00 +19°C° 0 mm 3 m/s 763 mmHg 68%
    09:00 +20°C° 0 mm 3 m/s 763 mmHg 63%
    10:00 +22°C° 0 mm 3 m/s 763 mmHg 58%
    11:00 +22°C° 0 mm 3 m/s 762 mmHg 59%
    12:00 +22°C° 0 mm 3 m/s 762 mmHg 60%
    13:00 +24°C° 0 mm 3 m/s 761 mmHg 61%
    14:00 +23°C° 0 mm 4 m/s 761 mmHg 60%
    15:00 +25°C° 0 mm 4 m/s 760 mmHg 59%
    16:00 +25°C° 0 mm 5 m/s 759 mmHg 58%
    17:00 +23°C° 0 mm 5 m/s 759 mmHg 62%
    18:00 +22°C° 0 mm 4 m/s 759 mmHg 66%
    19:00 +21°C° 0 mm 4 m/s 759 mmHg 70%
    20:00 +21°C° 0 mm 4 m/s 759 mmHg 72%
    21:00 +20°C° 0 mm 4 m/s 759 mmHg 74%
    22:00 +19°C° 0 mm 4 m/s 758 mmHg 77%
    23:00 +20°C° 0 mm 4 m/s 758 mmHg 77%

    26 Mai, Duminică

    Timp Temperatura Precipitaţii Vânt Presiune Umiditate
    00:00 +20°C° 0 mm 3 m/s 757 mmHg 77%
    01:00 +20°C° 0 mm 3 m/s 757 mmHg 77%
    02:00 +20°C° 0 mm 3 m/s 757 mmHg 78%
    03:00 +19°C° 0 mm 3 m/s 756 mmHg 79%
    04:00 +19°C° 0 mm 3 m/s 756 mmHg 81%
    05:00 +20°C° 0 mm 3 m/s 756 mmHg 81%
    06:00 +21°C° 0 mm 3 m/s 756 mmHg 81%
    07:00 +22°C° 0 mm 3 m/s 756 mmHg 80%
    08:00 +24°C° 0 mm 3 m/s 756 mmHg 77%
    09:00 +26°C° 0 mm 3 m/s 756 mmHg 75%
    10:00 +27°C° 0 mm 3 m/s 756 mmHg 72%
    11:00 +28°C° 0 mm 3 m/s 755 mmHg 64%
    12:00 +30°C° 0 mm 3 m/s 755 mmHg 56%
    13:00 +33°C° 0 mm 4 m/s 755 mmHg 48%
    14:00 +33°C° 0 mm 3 m/s 755 mmHg 48%
    15:00 +33°C° 0 mm 3 m/s 754 mmHg 49%
    16:00 +33°C° 0 mm 3 m/s 754 mmHg 49%
    17:00 +30°C° 0 mm 3 m/s 754 mmHg 55%
    18:00 +29°C° 0 mm 4 m/s 754 mmHg 61%
    19:00 +27°C° 0 mm 4 m/s 754 mmHg 67%
    20:00 +26°C° 0.1 mm 4 m/s 754 mmHg 70%
    21:00 +25°C° 0.1 mm 3 m/s 754 mmHg 74%
    22:00 +24°C° 0.1 mm 3 m/s 754 mmHg 78%
    23:00 +24°C° 0 mm 3 m/s 754 mmHg 80%

    27 Mai, Luni

    Timp Temperatura Precipitaţii Vânt Presiune Umiditate
    00:00 +22°C° 0 mm 3 m/s 753 mmHg 82%
    01:00 +22°C° 0 mm 3 m/s 753 mmHg 83%
    02:00 +21°C° 0 mm 3 m/s 753 mmHg 84%
    03:00 +21°C° 0 mm 2 m/s 753 mmHg 85%
    04:00 +20°C° 0 mm 2 m/s 752 mmHg 86%
    05:00 +21°C° 0 mm 3 m/s 753 mmHg 82%
    06:00 +21°C° 0 mm 3 m/s 753 mmHg 78%
    07:00 +22°C° 0 mm 3 m/s 753 mmHg 74%
    08:00 +23°C° 0 mm 4 m/s 753 mmHg 67%
    09:00 +25°C° 0 mm 4 m/s 753 mmHg 59%
    10:00 +27°C° 0 mm 5 m/s 753 mmHg 51%
    11:00 +27°C° 0 mm 5 m/s 753 mmHg 46%
    12:00 +28°C° 0 mm 6 m/s 753 mmHg 41%
    13:00 +28°C° 0 mm 6 m/s 753 mmHg 37%
    14:00 +27°C° 0 mm 6 m/s 753 mmHg 40%
    15:00 +27°C° 0 mm 7 m/s 753 mmHg 43%
    16:00 +26°C° 0 mm 7 m/s 753 mmHg 46%
    17:00 +23°C° 0 mm 6 m/s 754 mmHg 47%
    18:00 +21°C° 0 mm 5 m/s 754 mmHg 47%
    19:00 +19°C° 0 mm 5 m/s 755 mmHg 47%
    20:00 +18°C° 0 mm 4 m/s 756 mmHg 47%
    21:00 +17°C° 0 mm 4 m/s 756 mmHg 48%
    22:00 +15°C° 0 mm 4 m/s 757 mmHg 48%
    23:00 +14°C° 0 mm 4 m/s 757 mmHg 49%
    Arată mai mult